Dewpoint
67 68 67 68 68 68 68 66 65 66 66 66 67 65 64 63 63 63 63 62 61 61 60 60 60 59 60 59 63 63 62 61 62
68 68 67 67 68 68 67 66 65 65 66 64 67 66 64 63 63 62 62 61 61 60 60 59 59 59 61 65 62 60 60 60 62
67 68 67 67 68 68 67 67 65 65 65 64 67 66 64 61 62 63 63 63 60 59 62 61 59 63 64 62 61 59 62 63 60
67 67 67 67 67 67 67 67 67 66 66 66 67 64 63 59 59 62 62 63 58 56 61 62 64 62 61 61 59 58 62 62 59
67 67 66 66 67 67 66 65 65 65 66 67 66 64 61 57 53 58 60 62 57 57 57 60 61 60 57 58 57 59 61 60 58
65 66 65 66 65 66 65 65 64 64 63 65 65 63 60 55 59 59 60 61 59 57 63 62 59 55 55 58 59 62 61 58 57
66 65 65 65 65 65 65 65 65 66 65 64 63 61 56 54 61 60 61 60 59 62 62 61 59 57 61 61 62 60 60 57 56
66 65 65 65 64 63 63 64 64 63 64 63 61 59 58 62 62 61 63 62 61 62 62 60 59 57 61 61 60 59 58 56 54
65 64 65 64 60 59 58 58 63 62 62 62 61 61 61 62 62 62 62 63 64 61 62 61 58 58 61 61 61 58 57 54 54
63 64 64 63 63 61 60 60 60 62 60 60 60 59 59 60 60 62 61 63 64 63 59 62 59 60 59 60 59 57 55 55 54
63 62 64 63 61 61 61 62 60 61 60 55 57 56 57 56 56 60 62 63 64 63 63 62 60 60 59 60 58 57 54 53 53
62 64 64 63 61 60 58 59 62 59 56 55 55 56 55 56 56 56 59 62 63 63 62 63 62 60 59 59 58 56 54 53 54
61 61 62 64 63 60 59 59 60 57 56 56 55 55 55 56 56 56 56 59 60 62 62 62 62 61 60 58 58 56 53 54 55
60 61 61 63 63 62 59 57 58 56 55 57 57 57 56 56 55 55 53 57 57 58 60 61 61 61 61 59 58 57 54 54 53
57 60 60 61 61 62 61 58 57 56 56 57 57 57 56 55 53 54 54 53 56 57 58 59 60 60 61 61 60 59 56 54 54
51 55 60 60 60 60 61 59 58 57 58 57 57 57 57 55 54 54 54 54 55 56 57 57 57 58 59 60 61 60 58 56 55
45 46 51 57 60 60 59 60 58 58 58 54 55 53 54 56 55 55 55 54 55 56 56 57 56 56 57 59 59 60 60 59 56
40 42 44 47 51 53 58 60 59 57 57 56 54 51 50 53 55 55 55 55 55 56 56 56 54 56 57 57 57 59 59 59 59
37 38 39 41 44 46 50 52 56 58 55 56 53 49 50 50 50 54 54 54 54 54 54 54 54 54 57 58 57 57 58 59 58
35 35 36 37 40 42 44 46 49 49 54 54 52 51 49 48 47 49 52 53 54 54 54 54 54 53 53 56 57 56 57 58 57
Wind_Speed
8 6 5 8 10 11 10 11 14 15 15 15 12 14 12 9 15 12 16 13 12 14 14 14 14 15 16 16 18 20 20 21 20
7 8 8 10 11 12 12 11 14 14 14 12 10 8 5 13 15 15 14 13 13 13 12 13 13 15 14 18 20 19 17 18 21
7 9 10 13 13 13 12 11 13 12 12 11 8 6 4 7 14 15 12 14 12 10 13 12 16 14 17 19 19 18 17 15 21
10 11 13 15 15 14 12 10 10 11 11 10 7 7 4 3 11 15 13 14 12 10 12 14 16 16 16 16 15 15 16 19 18
13 15 16 16 16 15 13 11 11 9 9 9 8 7 7 6 6 10 14 12 12 13 14 15 16 15 13 11 14 15 15 18 18
13 13 18 21 18 16 15 12 10 11 11 11 10 9 10 7 9 12 20 13 15 14 15 19 18 15 11 12 15 18 18 18 19
10 12 16 19 18 16 14 12 10 9 9 9 10 10 13 9 12 12 17 15 15 16 19 19 18 19 13 12 16 18 18 17 14
9 11 13 14 17 13 12 7 8 10 11 11 12 13 12 9 11 13 13 12 16 18 18 20 20 20 18 15 16 15 13 14 12
11 12 13 14 13 15 13 12 9 13 15 15 16 14 11 12 11 14 15 13 10 16 18 21 21 19 21 21 16 13 12 14 9
11 12 13 13 14 16 16 16 16 17 15 16 17 14 14 14 11 12 15 13 12 14 18 21 22 19 20 22 22 20 14 13 11
13 12 11 12 13 12 13 16 14 13 18 14 15 15 13 15 15 15 15 17 17 17 18 21 23 22 20 20 21 20 14 14 12
14 13 14 16 15 16 14 15 16 18 14 15 13 15 13 15 15 17 15 15 18 18 15 20 22 22 22 21 20 19 20 15 14
11 14 14 14 12 14 15 17 18 16 16 14 16 14 14 16 16 15 16 15 14 16 17 16 20 22 21 21 20 19 20 20 17
12 11 11 12 14 15 15 16 15 17 15 16 14 12 13 15 14 16 15 18 17 15 18 17 16 18 19 21 21 20 20 21 21
18 12 12 11 14 15 12 18 14 16 16 14 15 16 14 16 16 17 12 11 17 17 16 16 15 18 18 20 20 22 22 21 21
19 18 13 11 12 17 18 19 19 16 17 16 8 6 8 11 13 14 14 13 16 17 16 16 15 17 20 19 20 21 24 24 23
18 19 18 16 11 13 20 19 18 18 18 15 13 8 6 11 12 12 13 17 14 15 17 16 16 15 16 18 21 20 23 26 26
21 19 17 18 14 10 12 17 16 21 14 15 8 7 9 7 11 16 17 15 15 15 14 16 15 16 16 17 20 23 22 24 27
21 21 20 19 17 18 11 12 6 18 19 9 3 4 4 8 7 13 18 17 17 17 16 16 16 14 16 18 20 21 24 24 25
23 23 22 22 18 20 19 18 14 15 7 11 5 3 3 2 2 5 10 13 13 14 14 15 15 17 17 17 18 24 25 26 27
Wind_Direction
175 171 144 147 139 138 137 138 134 134 131 134 151 146 129 108 103 96 111 109 113 107 104 113 113 110 115 121 116 98 101 96 100
183 170 160 156 159 146 142 145 133 129 135 146 166 150 137 127 120 114 108 113 125 117 122 122 121 125 124 110 112 105 107 114 100
202 185 173 163 167 149 144 138 132 132 143 160 189 176 186 155 130 131 130 133 139 128 145 130 139 132 119 111 110 109 105 112 110
206 193 189 171 172 155 150 144 137 145 145 162 202 209 233 273 148 133 135 149 153 146 134 128 122 116 110 110 111 115 119 109 112
225 198 193 184 173 156 150 154 160 162 164 168 203 228 277 280 163 121 142 164 171 157 166 160 136 122 121 119 129 125 123 120 110
229 225 196 186 178 163 157 164 177 175 176 185 204 224 244 254 132 131 148 174 164 165 153 147 139 133 133 147 140 126 119 117 116
198 198 201 181 175 169 165 169 184 188 182 186 199 220 234 230 137 144 162 168 172 162 162 154 143 145 139 141 138 130 134 119 118
152 149 154 159 155 146 149 149 228 213 202 185 195 217 242 163 146 158 150 176 181 172 166 162 158 153 143 135 137 135 131 121 115
168 168 170 166 166 158 163 181 210 224 225 188 199 211 196 153 150 164 163 163 176 185 174 170 166 161 157 146 144 148 147 118 144
185 178 179 178 170 171 176 183 206 222 233 196 201 207 171 152 150 166 172 175 184 200 184 181 169 168 167 158 158 154 149 131 163
191 192 191 193 185 175 179 181 198 224 239 206 201 185 172 164 155 167 182 183 182 186 186 188 180 175 177 173 164 157 153 164 181
216 203 198 206 193 179 187 195 209 223 216 207 202 182 192 162 154 165 173 181 182 188 191 193 191 188 185 182 182 170 161 170 187
243 225 208 198 194 198 203 207 207 215 206 202 200 188 198 170 175 181 175 176 183 192 190 197 201 198 196 193 190 186 174 172 189
305 266 237 212 201 204 205 216 204 207 208 201 193 193 183 177 180 199 187 184 180 187 192 188 200 209 209 204 194 191 188 184 188
345 308 278 239 224 220 216 210 207 200 205 191 195 202 194 186 188 197 199 197 177 181 186 189 194 205 207 212 210 198 192 193 196
0 350 320 288 244 231 217 208 215 203 200 193 191 185 191 193 192 201 206 201 195 188 182 186 189 196 204 207 211 211 202 197 200
11 7 350 339 300 279 242 225 201 211 206 198 171 188 200 224 217 207 214 213 199 198 195 189 195 197 196 204 209 212 212 210 203
13 15 10 2 357 350 270 244 192 209 200 194 174 172 213 169 203 214 211 208 207 204 206 201 200 194 193 205 214 213 211 217 215
18 18 16 18 7 356 356 11 330 212 199 174 176 92 110 185 182 214 212 209 202 201 206 207 208 206 198 200 207 215 216 214 216
24 21 19 15 16 358 4 26 28 11 143 183 150 170 122 107 143 175 196 211 207 214 209 205 205 207 205 202 207 214 218 222 224